Frankfort, MI

4:59 AM EDT on March 27, 2017 (GMT -0400)
Frankfort

Weather History for KFKS - January, 2013

Change the Weather History Date:

Tuesday, January 8, 2013

  Actual Average (KMBL) Record (KMBL)
Temperature  
Mean Temperature 34 °F -  
Max Temperature 39 °F 26 °F 50 °F (1949)
Min Temperature 30 °F 13 °F 2 °F (1968)
Degree Days  
Heating Degree Days 30    
Moisture  
Dew Point 29 °F    
Average Humidity 76    
Maximum Humidity 90    
Minimum Humidity 70    
Precipitation  
Precipitation 0.00 in - - ()
Sea Level Pressure  
Sea Level Pressure 30.04 in    
Wind  
Wind Speed 7 mph (South)    
Max Wind Speed 17 mph    
Max Gust Speed 29 mph    
Visibility 9 miles    
Events      
Averages and records for this station are not official NWS values.
T = Trace of Precipitation, MM = Missing Value Source: NWS Daily Summary

Daily Weather History Graph

Daily Weather History Graph

Search for Another Location

Airport or City:

Trip Planner

Search our weather history database for the weather conditions in past years. The results will help you decide how hot, cold, wet, or windy it might be!

Date:

Astronomy

Jan. 08, 2013 Rise Set
Actual Time 8:20 AM EST 5:22 PM EST
Civil Twilight 7:48 AM EST 5:55 PM EST
Nautical Twilight 7:11 AM EST 6:32 PM EST
Astronomical Twilight 6:36 AM EST 7:07 PM EST
Moon 4:52 AM EST (1/8) 2:24 PM EST (1/8)
Length of Visible Light 10h 07m
Length of Day
9h 01m
Waning Crescent, 14% of the Moon is Illuminated
Jan 8
Waning Crescent
Jan 11
New
Jan 18
First Quarter
Jan 26
Full
Feb 3
Last Quarter

Hourly Weather History & Observations

Time (EST) Temp. Windchill Dew Point Humidity Pressure Visibility Wind Dir Wind Speed Gust Speed Precip Events Conditions
12:16 AM 37.0 °F 30.4 °F 28.4 °F 71% 30.00 in 10.0 mi WSW 9.2 mph 18.4 mph N/A   Clear
12:36 AM 36.7 °F 29.9 °F 28.8 °F 73% 30.00 in 10.0 mi WSW 9.2 mph 16.1 mph N/A   Clear
12:51 AM 36.9 °F 29.6 °F 28.4 °F 71% 30.00 in 10.0 mi WSW 10.4 mph 18.4 mph N/A   Scattered Clouds
1:31 AM 36.7 °F 29.4 °F 28.9 °F 74% 30.01 in 10.0 mi WSW 10.4 mph 18.4 mph N/A   Scattered Clouds
1:52 AM 36.5 °F 28.2 °F 28.9 °F 74% 30.01 in 10.0 mi WSW 12.7 mph 17.3 mph N/A   Scattered Clouds
2:12 AM 36.5 °F 29.2 °F 28.9 °F 74% 30.01 in 10.0 mi West 10.4 mph 17.3 mph N/A   Scattered Clouds
2:32 AM 36.3 °F 30.1 °F 28.9 °F 75% 30.01 in 10.0 mi WSW 8.1 mph - N/A   Scattered Clouds
2:52 AM 36.1 °F 29.9 °F 28.9 °F 75% 30.02 in 10.0 mi WSW 8.1 mph - N/A   Scattered Clouds
3:12 AM 36.1 °F 28.7 °F 28.9 °F 75% 30.03 in 10.0 mi WSW 10.4 mph 16.1 mph N/A   Scattered Clouds
3:32 AM 36.3 °F 30.8 °F 29.1 °F 75% 30.03 in 10.0 mi WSW 6.9 mph - N/A   Overcast
3:52 AM 36.0 °F 30.3 °F 29.1 °F 76% 30.03 in 10.0 mi WSW 6.9 mph - N/A   Overcast
4:13 AM 36.0 °F 31.1 °F 29.3 °F 77% 30.03 in 10.0 mi SSW 5.8 mph - N/A   Overcast
4:33 AM 35.8 °F 31.9 °F 29.1 °F 77% 30.03 in 10.0 mi SW 4.6 mph - N/A   Mostly Cloudy
4:53 AM 35.1 °F 31.0 °F 28.8 °F 78% 30.04 in 10.0 mi SW 4.6 mph - N/A   Scattered Clouds
5:13 AM 35.2 °F 32.4 °F 28.8 °F 77% 30.04 in 10.0 mi SSW 3.5 mph - N/A   Clear
5:33 AM 35.1 °F 32.2 °F 29.1 °F 79% 30.04 in 10.0 mi SW 3.5 mph - N/A   Clear
5:53 AM 35.1 °F 32.2 °F 29.3 °F 80% 30.04 in 10.0 mi WSW 3.5 mph - N/A   Clear
6:13 AM 35.2 °F - 29.5 °F 80% 30.05 in 10.0 mi Calm Calm - N/A   Scattered Clouds
6:33 AM 35.1 °F 31.0 °F 29.3 °F 80% 30.05 in 10.0 mi SW 4.6 mph - N/A   Mostly Cloudy
6:54 AM 35.4 °F 32.6 °F 29.7 °F 80% 30.06 in 10.0 mi WSW 3.5 mph - N/A   Mostly Cloudy
7:14 AM 35.2 °F 32.4 °F 29.5 °F 80% 30.07 in 10.0 mi SW 3.5 mph - N/A   Overcast
7:34 AM 35.4 °F 31.5 °F 29.7 °F 80% 30.07 in 10.0 mi SSW 4.6 mph - N/A   Mostly Cloudy
7:54 AM 34.9 °F - 29.5 °F 81% 30.08 in 10.0 mi Calm Calm - N/A   Mostly Cloudy
8:14 AM 32.2 °F 28.9 °F 27.9 °F 84% 30.08 in 10.0 mi SSE 3.5 mph - N/A   Scattered Clouds
8:34 AM 30.4 °F 24.5 °F 27.7 °F 90% 30.09 in 7.0 mi SE 5.8 mph - N/A   Clear
8:54 AM 30.0 °F - 27.5 °F 90% 30.10 in 5.0 mi Calm Calm - N/A   Clear
9:14 AM 30.2 °F - 27.5 °F 90% 30.10 in 5.0 mi Calm Calm - N/A   Clear
9:55 AM 33.1 °F 28.7 °F 28.9 °F 85% 30.11 in 7.0 mi SE 4.6 mph - N/A   Clear
10:15 AM 33.4 °F 29.1 °F 28.9 °F 84% 30.11 in 7.0 mi SSE 4.6 mph - N/A   Clear
10:35 AM 34.7 °F 31.8 °F 29.5 °F 81% 30.12 in 7.0 mi SSE 3.5 mph - N/A   Clear
10:55 AM 36.1 °F 33.5 °F 30.0 °F 78% 30.12 in 7.0 mi SSE 3.5 mph - N/A   Clear
11:15 AM 37.2 °F 31.2 °F 30.2 °F 76% 30.11 in 10.0 mi SSE 8.1 mph - N/A   Clear
11:35 AM 38.3 °F 32.5 °F 30.7 °F 74% 30.11 in 10.0 mi South 8.1 mph - N/A   Clear
11:55 AM 38.5 °F 32.1 °F 30.7 °F 74% 30.10 in 10.0 mi SSW 9.2 mph - N/A   Clear
12:16 PM 38.8 °F 35.4 °F 30.9 °F 73% 30.09 in 10.0 mi SSW 4.6 mph - N/A   Clear
12:56 PM 38.5 °F 32.1 °F 31.1 °F 75% 30.09 in 7.0 mi South 9.2 mph - N/A   Clear
1:56 PM 38.5 °F 33.4 °F 31.6 °F 76% 30.08 in 7.0 mi SW 6.9 mph - N/A   Clear
2:16 PM 38.5 °F 34.1 °F 32.0 °F 78% 30.08 in 7.0 mi SW 5.8 mph - N/A   Clear
2:51 PM 39.2 °F 34.2 °F 32.0 °F 75% 30.08 in 7.0 mi SW 6.9 mph - N/A   Clear
3:12 PM 39.6 °F 35.4 °F 32.0 °F 74% 30.08 in 7.0 mi SW 5.8 mph - N/A   Clear
3:32 PM 39.2 °F 34.2 °F 32.2 °F 76% 30.08 in 7.0 mi SW 6.9 mph - N/A   Clear
3:52 PM 39.2 °F 37.0 °F 32.0 °F 75% 30.08 in 7.0 mi South 3.5 mph - N/A   Clear
4:12 PM 39.0 °F 34.8 °F 31.1 °F 73% 30.08 in 10.0 mi South 5.8 mph - N/A   Clear
4:32 PM 38.3 °F 33.9 °F 31.1 °F 75% 30.08 in 10.0 mi SSE 5.8 mph - N/A   Clear
4:52 PM 38.3 °F 34.8 °F 31.1 °F 75% 30.08 in 10.0 mi SE 4.6 mph - N/A   Clear
5:12 PM 37.8 °F 35.3 °F 30.9 °F 76% 30.07 in 10.0 mi SE 3.5 mph - N/A   Clear
5:32 PM 37.4 °F 34.9 °F 30.9 °F 77% 30.06 in 10.0 mi SE 3.5 mph - N/A   Clear
5:53 PM 37.0 °F 34.5 °F 30.9 °F 79% 30.05 in 10.0 mi SE 3.5 mph - N/A   Clear
6:13 PM 36.7 °F 32.9 °F 31.1 °F 80% 30.05 in 10.0 mi SE 4.6 mph - N/A   Clear
6:33 PM 36.7 °F 32.0 °F 30.7 °F 79% 30.04 in 10.0 mi SSE 5.8 mph - N/A   Clear
6:53 PM 37.6 °F 31.6 °F 29.8 °F 74% 30.03 in 10.0 mi SSE 8.1 mph - N/A   Clear
7:13 PM 37.4 °F 30.8 °F 29.7 °F 74% 30.01 in 10.0 mi SSE 9.2 mph - N/A   Clear
7:33 PM 37.6 °F 29.6 °F 29.1 °F 72% 30.01 in 10.0 mi SSE 12.7 mph - N/A   Clear
7:53 PM 36.9 °F 29.1 °F 29.3 °F 74% 30.00 in 10.0 mi SSE 11.5 mph 16.1 mph N/A   Clear
8:13 PM 36.5 °F 28.2 °F 28.9 °F 74% 30.00 in 10.0 mi SSE 12.7 mph - N/A   Clear
8:33 PM 36.3 °F 28.0 °F 28.2 °F 72% 29.99 in 10.0 mi SSE 12.7 mph 16.1 mph N/A   Clear
8:54 PM 35.6 °F 28.6 °F 27.9 °F 73% 29.98 in 10.0 mi SSE 9.2 mph - N/A   Clear
9:14 PM 35.4 °F 28.4 °F 27.5 °F 73% 29.98 in 10.0 mi SSE 9.2 mph 16.1 mph N/A   Clear
9:34 PM 35.6 °F 27.5 °F 27.3 °F 72% 29.97 in 10.0 mi SSE 11.5 mph - N/A   Clear
9:54 PM 35.6 °F 27.5 °F 27.3 °F 72% 29.97 in 10.0 mi SSE 11.5 mph 17.3 mph N/A   Clear
10:14 PM 35.4 °F 27.3 °F 27.1 °F 72% 29.96 in 10.0 mi SSE 11.5 mph 16.1 mph N/A   Clear
10:34 PM 35.2 °F 27.6 °F 27.1 °F 72% 29.95 in 10.0 mi SSE 10.4 mph 16.1 mph N/A   Clear
10:54 PM 36.0 °F 28.5 °F 27.3 °F 71% 29.95 in 10.0 mi South 10.4 mph - N/A   Clear
11:14 PM 36.5 °F 28.2 °F 27.5 °F 70% 29.94 in 10.0 mi SSE 12.7 mph 20.7 mph N/A   Clear
11:34 PM 37.0 °F 29.3 °F 28.0 °F 70% 29.94 in 10.0 mi SSE 11.5 mph 18.4 mph N/A   Clear
11:55 PM 38.3 °F 29.0 °F 29.3 °F 70% 29.94 in 10.0 mi South 17.3 mph 28.8 mph N/A   Clear